Search for airport 
image banner adimage banner ad
image banner ad

SVPL - Punta De Palmas

Located in La Canada Zulia, Venezuela

ICAO - SVPL, IATA -

Data provided by Airmate  

General information

Coordinates: N10°26'25" W71°37'45"
Elevation is 1050 feet MSL.
 
Rated:
View ratings: [VIEW]


View others Airports in Bolívar

Operational data

Open for public use
Current time UTC:
Current local time:
Weather at : SVMC - Maracaibo / La Chinita Intl ( 17 km )
METAR: SVMC 270402Z AUTO NIL
TAF: TAF SVMC 262200Z 2700/2800 36006KT 9999 FEW020 TX33/18Z TN27/09Z BECMG 2700/2706 02007KT 9999 FEW016
View NOTAMs / SUP AIP / TFR affecting this airport [VIEW]
Communications frequencies: [VIEW]

Runways:

Airport contact information

Address: La Canada Zulia Venezuela

Satellite view of SVPL